Total_Precipitation_Accumulation
0.28 0.48 0.58 0.72 0.84 0.84 0.84 0.79 0.70 0.65 0.66 0.69 0.70 0.76 0.98 1.17 1.36 1.59 1.82 1.92 1.87 1.81 1.69 1.57 1.54 1.44 1.33 1.19 1.05 0.90 0.76 0.65 0.53 0.49 0.45 0.34 0.26 0.24 0.25 0.26 0.28 0.29 0.30
0.38 0.59 0.75 1.00 1.12 1.13 1.14 1.15 1.16 1.23 1.38 1.55 1.72 1.92 2.10 2.17 2.32 2.49 2.59 2.54 2.38 2.26 2.11 2.00 1.89 1.68 1.50 1.31 1.11 0.93 0.82 0.69 0.57 0.56 0.57 0.49 0.35 0.24 0.20 0.20 0.20 0.21 0.20
0.47 0.62 0.80 1.02 1.15 1.27 1.35 1.41 1.59 2.07 2.56 2.70 2.83 3.06 3.28 3.22 3.13 3.01 2.91 2.83 2.74 2.61 2.44 2.30 2.13 1.86 1.60 1.38 1.16 0.96 0.84 0.73 0.63 0.56 0.56 0.51 0.41 0.29 0.20 0.17 0.14 0.13 0.15
0.52 0.67 0.85 1.05 1.20 1.46 1.56 1.70 2.12 2.77 3.30 3.52 3.86 4.24 4.31 4.30 4.22 3.83 3.40 3.01 2.70 2.46 2.25 2.06 1.84 1.59 1.35 1.18 1.00 0.83 0.70 0.64 0.56 0.48 0.42 0.37 0.31 0.28 0.22 0.14 0.11 0.11 0.11
0.50 0.62 0.80 0.98 1.10 1.32 1.62 1.86 2.34 2.91 3.51 4.09 4.56 4.81 4.92 4.78 4.37 3.71 3.09 2.72 2.46 2.18 1.89 1.62 1.40 1.18 0.99 0.83 0.73 0.62 0.55 0.50 0.42 0.35 0.29 0.27 0.24 0.21 0.21 0.18 0.13 0.11 0.10
0.40 0.55 0.76 0.85 1.07 1.31 1.53 1.84 2.13 2.60 3.22 3.75 4.16 4.21 4.29 4.21 3.76 3.27 2.85 2.54 2.14 1.70 1.35 1.09 0.87 0.70 0.58 0.52 0.47 0.42 0.35 0.30 0.24 0.18 0.15 0.14 0.14 0.15 0.16 0.15 0.12 0.10 0.09
0.34 0.57 0.80 0.76 0.97 1.27 1.59 1.87 2.17 2.49 2.86 3.30 3.61 3.69 3.71 3.58 3.22 2.79 2.36 1.96 1.57 1.22 0.93 0.75 0.63 0.51 0.41 0.34 0.27 0.22 0.18 0.15 0.14 0.13 0.12 0.10 0.09 0.08 0.08 0.09 0.10 0.09 0.07
0.37 0.51 0.68 0.76 0.98 1.17 1.43 1.74 2.01 2.26 2.39 2.48 2.65 2.71 2.67 2.56 2.39 2.03 1.65 1.36 1.12 0.89 0.71 0.59 0.48 0.37 0.26 0.19 0.16 0.13 0.12 0.10 0.09 0.08 0.08 0.08 0.06 0.05 0.06 0.07 0.09 0.10 0.09
0.39 0.47 0.59 0.72 0.93 1.19 1.40 1.63 1.73 1.82 1.93 1.96 1.93 1.92 1.89 1.77 1.62 1.42 1.21 0.98 0.77 0.59 0.44 0.35 0.29 0.21 0.17 0.14 0.12 0.10 0.09 0.08 0.08 0.07 0.06 0.06 0.05 0.05 0.05 0.06 0.08 0.12 0.12
0.39 0.46 0.54 0.62 0.70 0.80 1.03 1.18 1.24 1.28 1.31 1.31 1.29 1.26 1.21 1.12 1.01 0.90 0.78 0.64 0.52 0.41 0.32 0.24 0.20 0.17 0.15 0.13 0.11 0.08 0.07 0.06 0.06 0.06 0.06 0.06 0.06 0.06 0.07 0.09 0.10 0.11 0.14
0.41 0.43 0.48 0.50 0.53 0.55 0.67 0.80 0.88 0.92 0.93 0.92 0.86 0.77 0.72 0.64 0.60 0.57 0.52 0.46 0.41 0.36 0.32 0.27 0.24 0.21 0.17 0.14 0.12 0.10 0.09 0.09 0.09 0.08 0.08 0.09 0.09 0.11 0.10 0.10 0.09 0.09 0.12
0.48 0.45 0.41 0.39 0.38 0.39 0.42 0.47 0.51 0.53 0.55 0.53 0.50 0.50 0.48 0.42 0.38 0.37 0.34 0.30 0.28 0.26 0.23 0.20 0.19 0.17 0.15 0.13 0.11 0.11 0.10 0.09 0.08 0.07 0.08 0.08 0.08 0.09 0.08 0.08 0.07 0.08 0.12
0.57 0.45 0.34 0.28 0.28 0.31 0.34 0.35 0.35 0.33 0.34 0.32 0.31 0.34 0.35 0.34 0.31 0.28 0.26 0.23 0.20 0.18 0.16 0.15 0.13 0.11 0.09 0.08 0.06 0.05 0.04 0.04 0.04 0.04 0.05 0.06 0.06 0.07 0.07 0.08 0.07 0.08 0.10
0.63 0.47 0.36 0.32 0.33 0.35 0.33 0.30 0.29 0.26 0.24 0.25 0.25 0.26 0.27 0.25 0.24 0.22 0.19 0.17 0.15 0.14 0.12 0.10 0.08 0.06 0.04 0.03 0.02 0.02 0.02 0.02 0.03 0.03 0.04 0.04 0.05 0.06 0.07 0.07 0.09 0.12 0.17
0.69 0.57 0.46 0.42 0.39 0.34 0.30 0.28 0.29 0.27 0.24 0.23 0.22 0.21 0.19 0.18 0.17 0.16 0.14 0.13 0.12 0.10 0.08 0.06 0.04 0.03 0.02 0.01 0.01 0.01 0.01 0.01 0.02 0.03 0.03 0.03 0.04 0.06 0.06 0.07 0.11 0.17 0.22
0.68 0.62 0.57 0.53 0.46 0.39 0.33 0.29 0.27 0.26 0.24 0.20 0.18 0.17 0.17 0.15 0.13 0.11 0.09 0.08 0.06 0.05 0.03 0.02 0.02 0.01 0.00 0.00 0.00 0.00 0.00 0.01 0.03 0.04 0.04 0.04 0.03 0.03 0.04 0.06 0.11 0.18 0.22
0.83 0.81 0.82 0.77 0.66 0.55 0.45 0.40 0.35 0.30 0.26 0.25 0.24 0.23 0.19 0.15 0.11 0.07 0.06 0.05 0.04 0.03 0.03 0.02 0.02 0.02 0.01 0.00 0.00 0.00 0.00 0.03 0.05 0.07 0.07 0.05 0.03 0.05 0.08 0.08 0.08 0.10 0.12
1.10 1.12 1.05 0.93 0.81 0.69 0.58 0.50 0.43 0.38 0.34 0.31 0.27 0.20 0.14 0.09 0.07 0.05 0.05 0.04 0.03 0.03 0.03 0.02 0.03 0.05 0.03 0.00 0.00 0.00 0.01 0.04 0.06 0.07 0.07 0.08 0.08 0.08 0.07 0.06 0.06 0.09 0.13
1.08 1.04 0.97 0.89 0.81 0.67 0.56 0.48 0.41 0.35 0.29 0.22 0.16 0.12 0.08 0.07 0.06 0.06 0.05 0.05 0.04 0.04 0.04 0.03 0.04 0.06 0.06 0.01 0.00 0.00 0.01 0.04 0.04 0.04 0.05 0.07 0.09 0.08 0.08 0.07 0.08 0.11 0.15
0.80 0.80 0.78 0.72 0.66 0.56 0.43 0.36 0.30 0.23 0.18 0.11 0.08 0.06 0.05 0.04 0.04 0.04 0.04 0.03 0.03 0.04 0.04 0.04 0.05 0.07 0.08 0.02 0.00 0.01 0.01 0.03 0.04 0.06 0.08 0.09 0.08 0.07 0.07 0.06 0.12 0.18 0.18
0.61 0.64 0.64 0.60 0.49 0.37 0.28 0.23 0.19 0.15 0.10 0.06 0.05 0.04 0.03 0.03 0.04 0.04 0.05 0.05 0.05 0.06 0.06 0.06 0.08 0.08 0.06 0.03 0.01 0.01 0.02 0.03 0.05 0.08 0.12 0.14 0.08 0.06 0.06 0.08 0.14 0.20 0.19
0.47 0.49 0.44 0.36 0.29 0.22 0.19 0.17 0.13 0.09 0.06 0.06 0.06 0.05 0.04 0.03 0.03 0.05 0.06 0.05 0.07 0.07 0.08 0.09 0.09 0.09 0.08 0.05 0.02 0.01 0.01 0.02 0.05 0.10 0.13 0.14 0.10 0.09 0.11 0.14 0.18 0.20 0.26
0.29 0.31 0.28 0.23 0.21 0.18 0.16 0.14 0.10 0.08 0.07 0.08 0.07 0.04 0.02 0.03 0.03 0.04 0.05 0.05 0.07 0.07 0.07 0.07 0.08 0.09 0.10 0.08 0.02 0.01 0.01 0.02 0.04 0.09 0.12 0.14 0.16 0.18 0.26 0.27 0.23 0.28 0.41
0.17 0.18 0.17 0.16 0.16 0.14 0.13 0.11 0.08 0.07 0.08 0.09 0.07 0.05 0.05 0.05 0.04 0.04 0.02 0.04 0.05 0.05 0.06 0.07 0.07 0.09 0.10 0.07 0.03 0.02 0.03 0.04 0.06 0.09 0.17 0.26 0.32 0.34 0.38 0.42 0.45 0.47 0.48
0.16 0.16 0.15 0.14 0.10 0.09 0.08 0.06 0.06 0.08 0.10 0.08 0.06 0.06 0.07 0.06 0.06 0.07 0.04 0.03 0.03 0.01 0.02 0.03 0.04 0.05 0.06 0.04 0.03 0.03 0.04 0.04 0.06 0.09 0.22 0.38 0.44 0.45 0.44 0.42 0.43 0.47 0.45
0.13 0.13 0.11 0.09 0.07 0.06 0.05 0.04 0.04 0.05 0.07 0.08 0.05 0.04 0.05 0.05 0.06 0.10 0.10 0.04 0.01 0.01 0.01 0.01 0.02 0.03 0.06 0.05 0.03 0.03 0.06 0.06 0.10 0.16 0.33 0.43 0.45 0.45 0.41 0.38 0.36 0.36 0.36